[[{"header":{"parameterUnit":"m.s-1","parameterCategory":1,"la1":30.2991,"la2":30.254,"lo1":-89.0895,"lo2":-89.0444,"dy":0.0017,"dx":0.0017,"nx":28,"ny":28,"refTime":"2025-03-04T09:00:00:Z","depth":0,"parameterNumber":2,"parameterNumberName":"U-component_of_WINDS"},"data":[0,0,0,0,0,0,0,0,0,0,0,0,0,0,0,0,0,0,0,0,0,0,0,0,0,0,0,0,0,0,0,0,0,0,0,0,0,0,0,0,0,0,0,0,0,0,0,0,0,0,0,0,0,0,0,0,0,0,-4.9453,-4.9454,0,-4.9542,-4.9543,-4.9544,-4.9508,-4.9506,-4.9504,-4.9502,-4.9593,-4.9597,-4.9601,0,0,0,0,0,0,0,0,0,0,0,0,0,-4.9254,-4.9258,-4.9453,-4.9454,-4.9456,-4.9542,-4.9543,-4.9544,-4.9509,-4.9506,-4.9504,-4.9501,-4.9591,-4.9596,-4.9602,0,0,0,0,0,0,0,0,0,0,0,0,0,-4.9342,-4.9259,-4.9453,-4.9448,-4.9449,-4.9541,-4.9543,-4.9544,-4.9509,-4.9506,-4.9503,-4.95,-4.959,-4.9596,-4.9602,-4.9705,0,0,-4.9622,-4.9625,0,0,0,0,0,0,0,0,-4.9337,-4.9349,-4.9448,-4.9449,-4.9449,-4.9511,-4.9506,-4.9598,-4.951,-4.9486,-4.9502,-4.9498,-4.9568,-4.9576,-4.96,-4.9709,-4.9713,-4.9623,-4.9627,-4.963,-4.9631,0,0,0,0,0,0,0,-4.9331,-4.9345,-4.9488,-4.9449,-4.945,-4.9442,-4.9451,-4.9523,-4.9544,-4.9488,-4.9486,-4.9497,-4.9568,-4.9593,-4.9601,-4.9715,-4.9623,-4.9629,-4.9633,-4.9635,-4.9914,-4.9917,0,0,0,0,0,0,-4.9324,-4.934,-4.9485,-4.9491,-4.9384,-4.9448,-4.9458,-4.9494,-4.9543,-4.9547,-4.9499,-4.9495,-4.9584,-4.9594,-4.9604,-4.9727,-4.963,-4.9636,-4.9639,-4.991,-4.9914,-4.9918,0,0,0,0,0,0,-4.932,-4.9338,-4.9482,-4.9415,-4.9433,-4.9455,-4.9496,-4.9498,-4.9523,-4.9551,-4.9555,-4.9521,-4.9582,-4.9595,-4.968,-4.973,-4.9639,-4.9645,-4.9906,-4.9911,-4.9916,-4.9974,0,0,0,0,0,0,-4.9315,-4.9336,-4.9375,-4.9416,-4.9436,-4.9556,-4.9499,-4.9502,-4.9534,-4.9529,-4.9573,-4.9577,-4.958,-4.9671,-4.9687,-4.9737,-4.965,-4.9902,-4.9908,-4.9915,-4.9968,-4.9981,-4.9992,0,0,0,0,0,-4.9308,-4.9388,-4.9377,-4.9395,-4.9485,-4.9559,-4.9571,-4.9573,-4.9539,-4.9578,-4.9596,-4.9576,-4.9723,-4.968,-4.9698,-4.9751,-4.9898,-4.9906,-4.9914,-4.9962,-4.9978,-4.9991,0,0,0,0,0,0,-4.9352,-4.9393,-4.9382,-4.9478,-4.9515,-4.9553,-4.9602,-4.9589,-4.9637,-4.963,-4.9631,-4.9641,-4.9729,-4.9749,-4.97,-4.9853,-4.9805,-4.9817,-4.9836,-4.9851,-4.9863,-4.9855,-4.9655,0,0,0,0,0,-4.9373,-4.9429,-4.9462,-4.9544,-4.9563,-4.958,-4.9612,-4.9611,-4.9649,-4.9665,-4.9689,-4.9728,-4.9783,-4.9818,-4.987,-4.9972,-4.998,-5.0017,-5.0029,-5.0039,-5.0048,-5.0103,-5.0119,-4.9944,-4.9944,-4.9944,0,0,-4.9417,-4.9446,-4.9481,-4.9554,-4.9582,-4.964,-4.9593,-4.9657,-4.97,-4.9675,-4.9756,-4.9776,-4.9819,-4.9912,-4.9955,-4.9932,-5.0099,-5.0049,-5.0056,-5.006,-5.0112,-5.0129,-5.0144,-4.9949,-4.9948,-4.9947,0,0,-4.9525,-4.9554,-4.9624,-4.9655,-4.9699,-4.971,-4.9727,-4.9768,-4.978,-4.9862,-4.9844,-4.9896,-4.9991,-5.0022,-5.005,-5.0173,-5.0156,-5.0191,-5.0252,-5.0305,-5.0319,-5.0331,-5.0373,-5.0389,-5.02,-5.0201,-5.0201,0,-4.9573,-4.966,-4.9662,-4.9728,-4.976,-4.9741,-4.9812,-4.9842,-4.9901,-4.9924,-4.9897,-5.0016,-5.0044,-5.0144,-5.0174,-5.0198,-5.0218,-5.0184,-5.0317,-5.0329,-5.034,-5.0381,-5.0397,-5.0204,-5.0204,-5.0203,-5.0203,0,-4.9717,-4.9778,-4.983,-4.9887,-4.9926,-4.9994,-5.0007,-5.0045,-5.0042,-5.0056,-5.014,-5.0173,-5.0231,-5.0256,-5.0252,-5.0356,-5.034,-5.0316,-5.0267,-5.0361,-5.0399,-5.0414,-5.021,-5.0208,-5.0207,-5.0206,0,0,-4.9853,-4.9912,-4.9931,-4.9957,-5.0006,-5.0053,-5.0121,-5.0178,-5.0211,-5.0254,-5.031,-5.0392,-5.037,-5.0402,-5.0403,-5.045,-5.0544,-5.0419,-5.042,-5.044,-5.0659,-5.0675,-5.0693,-5.0534,-5.0537,-5.054,-5.0655,0,-4.9964,-5.0082,-5.0087,-5.0194,-5.025,-5.0234,-5.0294,-5.033,-5.0346,-5.0396,-5.0413,-5.047,-5.0438,-5.0457,-5.0503,-5.0523,-5.0588,-5.0515,-5.0586,-5.0588,-5.0572,-5.0714,-5.0731,-5.0838,-5.067,-5.0673,-5.0674,0,-5.0108,-5.0155,-5.0268,-5.0309,-5.0333,-5.0386,-5.0439,-5.0488,-5.0529,-5.0537,-5.0575,-5.0569,-5.0639,-5.0591,-5.0687,-5.0637,-5.0667,-5.0681,-5.0686,-5.069,-5.0635,-5.072,-5.0872,-5.0887,-5.0698,-5.0696,-5.0695,0,-5.0193,-5.0285,-5.0365,-5.0388,-5.0439,-5.0476,-5.0499,-5.0538,-5.0572,-5.062,-5.0642,-5.0697,-5.0727,-5.0769,-5.0779,-5.0743,-5.0875,-5.0827,-5.0883,-5.0882,-5.0908,-5.0906,-5.1065,-5.0932,-5.0932,-5.0932,-5.0931,0,-5.0315,-5.0384,-5.0404,-5.0452,-5.053,-5.0536,-5.0613,-5.0634,-5.0669,-5.0721,-5.0712,-5.0762,-5.0772,-5.0824,-5.0833,-5.091,-5.0925,-5.0933,-5.0933,-5.0932,-5.0931,-5.0949,-5.0941,-5.0936,-5.0935,-5.0934,-5.0933,0,-5.0422,-5.0438,-5.0523,-5.0565,-5.0577,-5.0633,-5.0668,-5.0715,-5.0731,-5.0798,-5.0814,-5.0838,-5.0899,-5.0914,-5.0986,-5.0992,-5.1083,-5.1078,-5.1069,-5.1068,-5.1121,-5.1115,-5.1296,-5.1319,-5.1173,-5.1174,-5.1176,0,-5.0497,-5.055,-5.0598,-5.0633,-5.0657,-5.0713,-5.0748,-5.0758,-5.0795,-5.0847,-5.0888,-5.0948,-5.0996,-5.1094,-5.1118,-5.1174,-5.1169,-5.1229,-5.1177,-5.1174,-5.1168,-5.1163,-5.1168,-5.1237,-5.1239,-5.124,-5.1241,0,-5.0628,-5.0634,-5.0685,-5.074,-5.0782,-5.0825,-5.0867,-5.0896,-5.0911,-5.0953,-5.1015,-5.1053,-5.1128,-5.1187,-5.1244,-5.1267,-5.1257,-5.1258,-5.1273,-5.1271,-5.1262,-5.1266,-5.1093,-5.1253,-5.1252,-5.1251,-5.125,-5.125,-5.072,-5.0767,-5.0808,-5.0865,-5.0898,-5.0937,-5.0983,-5.1005,-5.1057,-5.1118,-5.1121,-5.1188,-5.123,-5.1305,-5.1332,-5.1385,-5.1367,-5.139,-5.1395,-5.14,-5.1404,-5.1256,-5.1396,-5.1396,-5.1396,-5.1395,-5.1395,0,-5.0849,-5.0876,-5.0929,-5.0987,-5.1032,-5.102,-5.1065,-5.1104,-5.1164,-5.1204,-5.1251,-5.1323,-5.1382,-5.1411,-5.1469,-5.1506,-5.1503,-5.1521,-5.1517,-5.1522,-5.1418,-5.1398,-5.1522,-5.1522,-5.1522,-5.1522,-5.1522,-5.1522,-5.0922,-5.0999,-5.101,-5.1104,-5.113,-5.1196,-5.1223,-5.1259,-5.1291,-5.1371,-5.142,-5.1439,-5.1475,-5.1536,-5.1589,-5.1596,-5.1617,-5.1637,-5.1642,-5.1543,-5.153,-5.1517,-5.1498,-5.1642,-5.1642,-5.1741,-5.1742,-5.1743]},{"header":{"parameterUnit":"m.s-1","parameterCategory":1,"la1":30.2991,"la2":30.254,"lo1":-89.0895,"lo2":-89.0444,"dy":0.0017,"dx":0.0017,"nx":28,"ny":28,"refTime":"2025-03-04T09:00:00:Z","depth":0,"parameterNumber":3,"parameterNumberName":"V-component_of_WINDS"},"data":[0,0,0,0,0,0,0,0,0,0,0,0,0,0,0,0,0,0,0,0,0,0,0,0,0,0,0,0,0,0,0,0,0,0,0,0,0,0,0,0,0,0,0,0,0,0,0,0,0,0,0,0,0,0,0,0,0,0,3.0124,3.0125,0,3.0142,3.0142,3.0142,3.0097,3.0096,3.0095,3.0093,3.0112,3.0113,3.0115,0,0,0,0,0,0,0,0,0,0,0,0,0,3.0055,3.0057,3.0124,3.0125,3.0125,3.0142,3.0142,3.0142,3.0098,3.0096,3.0094,3.0093,3.0111,3.0113,3.0115,0,0,0,0,0,0,0,0,0,0,0,0,0,3.008,3.0057,3.0124,3.0105,3.0103,3.0142,3.0142,3.0142,3.0098,3.0096,3.0094,3.0092,3.011,3.0113,3.0116,3.0175,0,0,3.0124,3.0125,0,0,0,0,0,0,0,0,3.0079,3.0083,3.0107,3.0106,3.0104,3.0115,3.0124,3.0153,3.0099,3.01,3.0093,3.0091,3.0115,3.0117,3.0125,3.0175,3.0176,3.0124,3.0126,3.0127,3.0128,0,0,0,0,0,0,0,3.0077,3.0082,3.0131,3.0108,3.0106,3.0096,3.0097,3.013,3.0119,3.01,3.0096,3.0099,3.0113,3.0122,3.0125,3.0177,3.0124,3.0127,3.0128,3.0129,3.028,3.0282,0,0,0,0,0,0,3.0078,3.0081,3.0131,3.0132,3.0086,3.0099,3.01,3.0114,3.0118,3.0117,3.0101,3.0097,3.0119,3.0122,3.0125,3.0196,3.0127,3.013,3.0131,3.0277,3.028,3.0283,0,0,0,0,0,0,3.0077,3.0083,3.013,3.0106,3.0111,3.0102,3.0118,3.0115,3.0124,3.0119,3.0117,3.0112,3.0117,3.0122,3.0163,3.0196,3.0131,3.0133,3.0275,3.0278,3.0282,3.0338,0,0,0,0,0,0,3.0075,3.0083,3.0104,3.0106,3.0112,3.0167,3.012,3.0117,3.0129,3.0124,3.0129,3.0128,3.0116,3.016,3.0166,3.0199,3.0135,3.0272,3.0276,3.028,3.0333,3.0343,3.0351,0,0,0,0,0,3.0073,3.0119,3.0105,3.0111,3.0139,3.0169,3.0172,3.0157,3.0132,3.0154,3.0151,3.0128,3.0192,3.0164,3.0171,3.0205,3.0269,3.0275,3.028,3.0329,3.0341,3.0351,0,0,0,0,0,0,3.0119,3.0118,3.0103,3.0151,3.0161,3.0161,3.0188,3.017,3.0187,3.0182,3.0163,3.0164,3.021,3.0212,3.0181,3.0264,3.0226,3.0233,3.0261,3.0273,3.0282,3.028,3.0138,0,0,0,0,0,3.0136,3.016,3.0158,3.02,3.0206,3.0197,3.0209,3.0197,3.0206,3.021,3.021,3.022,3.0243,3.0258,3.0278,3.0334,3.0335,3.0361,3.037,3.0378,3.0384,3.0416,3.0428,3.03,3.03,3.03,0,0,3.0169,3.0171,3.0187,3.021,3.0215,3.0242,3.02,3.0229,3.0249,3.0214,3.0254,3.0255,3.0265,3.0315,3.0337,3.0317,3.042,3.0384,3.039,3.0392,3.0422,3.0435,3.0445,3.0304,3.0303,3.0303,0,0,3.0243,3.0246,3.0283,3.0291,3.03,3.0295,3.0304,3.0308,3.0307,3.0347,3.0322,3.0347,3.0385,3.0394,3.0404,3.0486,3.0465,3.0493,3.054,3.0572,3.0582,3.0591,3.0621,3.0632,3.0499,3.0499,3.0499,0,3.0283,3.0321,3.0305,3.0337,3.0348,3.0319,3.0357,3.0365,3.0381,3.0391,3.0369,3.0419,3.0424,3.0476,3.0497,3.0505,3.0516,3.0491,3.0582,3.059,3.0598,3.0628,3.0639,3.0503,3.0502,3.0502,3.0501,0,3.037,3.0398,3.0427,3.0444,3.0459,3.0494,3.0484,3.0502,3.049,3.0487,3.0529,3.0534,3.0556,3.0568,3.0556,3.062,3.0608,3.0585,3.0546,3.0614,3.0641,3.0652,3.0507,3.0506,3.0505,3.0504,0,0,3.0472,3.0482,3.0493,3.0502,3.0512,3.0533,3.0568,3.059,3.0606,3.0619,3.0649,3.0685,3.0664,3.0675,3.0664,3.0692,3.0759,3.0665,3.0665,3.0683,3.0832,3.085,3.0863,3.0746,3.0748,3.0749,3.0831,0,3.0546,3.0606,3.0594,3.0652,3.0679,3.0653,3.0684,3.0695,3.0694,3.0717,3.0716,3.0742,3.0711,3.0719,3.0745,3.0745,3.0788,3.0739,3.0774,3.0776,3.0773,3.0876,3.0895,3.0972,3.0842,3.0843,3.0845,0,3.064,3.0658,3.0719,3.0728,3.0738,3.0766,3.0787,3.0809,3.0821,3.0819,3.0833,3.0818,3.0855,3.0817,3.0868,3.0835,3.0849,3.0852,3.0854,3.0857,3.0814,3.0883,3.0996,3.1008,3.0861,3.086,3.0858,0,3.071,3.0749,3.0791,3.0799,3.081,3.0831,3.0836,3.0847,3.0862,3.0881,3.0891,3.0913,3.0926,3.0945,3.0937,3.0909,3.099,3.0951,3.099,3.0991,3.1008,3.1007,3.1126,3.1017,3.1016,3.1016,3.1016,0,3.0794,3.0833,3.0823,3.0849,3.0893,3.088,3.0925,3.0927,3.0937,3.0965,3.0944,3.097,3.0958,3.0984,3.0979,3.1023,3.1029,3.1029,3.1027,3.1031,3.1031,3.104,3.1034,3.1019,3.1019,3.1018,3.1018,0,3.0879,3.0873,3.0918,3.0926,3.0929,3.0961,3.0968,3.0994,3.0992,3.1027,3.1035,3.1033,3.1063,3.1057,3.109,3.1086,3.1143,3.1133,3.1138,3.1136,3.1177,3.1174,3.1306,3.1323,3.1202,3.1203,3.1204,0,3.0932,3.0962,3.0974,3.0991,3.0998,3.1026,3.1041,3.1031,3.1049,3.1067,3.1091,3.1119,3.1141,3.1191,3.1193,3.1218,3.121,3.1255,3.1214,3.1218,3.1213,3.1211,3.1215,3.1263,3.1264,3.1266,3.1266,0,3.103,3.1027,3.105,3.1074,3.1093,3.1111,3.1127,3.1143,3.1134,3.1155,3.1186,3.1203,3.1238,3.1267,3.1292,3.1299,3.1282,3.128,3.129,3.1295,3.1297,3.1298,3.1161,3.1276,3.1275,3.1275,3.1274,3.1274,3.1101,3.1128,3.114,3.1168,3.118,3.1196,3.1221,3.1224,3.1249,3.1276,3.1269,3.1305,3.1319,3.1351,3.1361,3.1389,3.1373,3.1388,3.1392,3.1396,3.1402,3.1293,3.1394,3.1393,3.1393,3.1393,3.1393,0,3.1198,3.1206,3.1232,3.1256,3.1278,3.1261,3.1279,3.1299,3.1331,3.1346,3.1369,3.1406,3.1434,3.144,3.1468,3.149,3.1483,3.1498,3.1496,3.1499,3.1414,3.1403,3.1503,3.1503,3.1503,3.1503,3.1503,3.1503,3.1252,3.1296,3.1295,3.1345,3.1353,3.1388,3.14,3.1416,3.1428,3.147,3.1494,3.1498,3.151,3.1539,3.1565,3.1566,3.1578,3.1596,3.1594,3.1515,3.1504,3.1494,3.1483,3.1598,3.1599,3.1676,3.1677,3.1678]}]]